Dewpoint
29 24 23 23 22 22 22 18 21 22 21 19 21 20 15 17 17 18 18 17 19 15 14 15 15 14 15 15 16 16 17 17 16 16 17 17 17 17 16 16 16 16 15 22 22 21 21 21 17 15 18 17 17 17 16 17 20 21 22 26 24 25 26 25 25 24 23 22 22 23 22 19 19 19 21 23 24 22 20 22 23 24 20 21 21 20
28 23 24 25 22 20 20 20 17 15 15 16 18 18 17 19 17 19 19 20 21 18 18 18 18 18 17 16 16 16 16 15 16 16 16 16 17 18 17 17 17 16 22 22 20 20 22 19 19 17 18 20 16 16 16 18 20 21 22 23 23 24 24 25 23 24 25 24 22 19 19 19 19 18 18 18 18 20 24 24 24 23 21 21 20 18
24 23 24 24 23 17 16 16 16 15 17 19 18 19 19 19 21 19 19 21 20 19 17 18 17 18 19 19 20 19 19 19 19 18 17 17 18 18 18 18 17 17 17 17 15 20 19 20 18 16 17 18 15 16 18 18 20 21 22 23 23 24 25 26 25 25 25 25 27 22 22 21 19 22 21 21 21 21 21 22 23 22 21 20 19 18
23 25 26 24 18 16 16 17 17 18 21 19 19 19 19 22 19 17 22 21 21 19 20 20 18 18 19 19 20 20 20 20 23 22 21 21 18 18 17 18 18 17 18 16 14 15 16 17 14 15 16 17 18 17 17 18 19 20 24 22 23 24 25 25 26 28 26 25 25 26 23 24 22 18 21 23 22 22 22 21 21 20 20 19 18 18
22 24 25 22 20 20 16 19 17 17 17 23 22 21 21 22 20 19 18 20 20 22 22 18 18 14 17 16 17 19 21 20 20 20 21 23 24 22 25 23 20 18 18 17 16 15 15 15 12 12 14 17 16 17 17 18 19 18 22 23 24 24 25 25 28 29 29 26 25 24 23 22 22 21 19 19 17 19 19 18 19 18 19 18 17 17
24 24 22 19 21 22 22 18 20 21 18 22 23 21 21 21 19 21 22 19 20 21 18 19 11 8 18 20 19 19 18 17 18 19 18 19 22 22 20 20 21 23 20 18 17 15 15 14 13 12 15 16 16 15 17 19 19 19 22 23 24 24 24 25 26 28 27 26 22 20 17 16 16 15 15 14 14 14 15 15 17 18 17 17 16 16
24 23 22 24 21 21 22 22 23 22 20 20 21 23 22 21 21 21 21 23 19 17 20 20 17 11 15 16 18 20 19 17 18 21 20 20 20 21 21 22 21 20 21 20 18 17 15 15 13 12 13 14 15 15 18 19 19 20 21 23 24 24 24 26 25 26 27 24 22 20 20 19 17 15 16 16 17 16 16 17 17 16 16 16 15 14
22 22 23 24 22 22 21 18 23 22 21 18 23 23 22 22 21 22 20 21 21 23 22 19 20 17 17 17 18 18 18 17 18 19 20 21 21 20 20 21 21 21 20 20 18 17 16 15 12 10 11 13 13 15 18 19 19 20 21 22 23 24 26 26 25 25 27 22 22 22 22 21 19 18 17 17 14 17 18 17 16 14 13 14 14 14
22 22 22 22 21 20 20 22 23 24 20 20 24 23 22 21 21 21 19 17 17 17 19 18 20 15 16 17 16 18 18 18 18 18 19 19 21 20 20 21 21 21 21 20 20 18 16 15 13 10 10 12 14 16 17 18 19 20 21 23 24 24 26 26 25 24 24 25 22 21 21 19 20 19 18 18 19 17 16 15 14 12 11 11 13 13
23 23 24 24 22 20 23 24 24 25 20 24 24 24 22 21 20 19 16 16 16 15 17 18 18 12 10 17 15 17 18 17 18 18 17 19 20 21 20 20 20 21 21 20 19 18 17 16 14 12 11 12 15 16 20 18 19 21 22 23 24 23 24 24 23 27 24 23 25 22 21 20 18 18 17 16 15 14 14 12 12 10 10 9 9 10
24 29 29 22 22 24 24 25 24 23 24 24 23 22 23 20 18 16 16 15 13 12 17 17 17 14 12 16 15 15 18 17 16 16 17 19 21 20 21 20 21 20 21 20 20 19 18 16 14 11 10 12 14 17 18 19 19 21 23 23 22 22 24 24 22 22 21 22 22 20 20 20 19 19 17 15 14 12 11 9 9 8 8 8 8 8
22 22 22 24 27 25 25 23 25 24 23 23 20 20 20 20 16 11 6 12 9 13 13 16 16 15 13 12 18 16 17 17 16 15 15 17 18 20 20 20 19 19 20 20 19 18 17 15 13 12 10 11 13 16 17 19 20 21 22 22 21 23 22 22 22 22 21 22 22 21 21 19 18 17 16 14 13 11 10 9 8 7 7 6 7 6
21 22 24 24 30 25 24 23 23 25 23 22 21 20 12 13 14 11 6 5 8 9 12 16 16 12 14 12 16 17 16 16 17 16 16 18 19 22 22 21 20 21 20 20 19 18 17 15 12 11 10 11 13 15 16 18 19 20 21 21 20 21 22 20 21 20 21 21 20 20 19 18 17 16 16 14 12 11 9 8 7 7 5 6 6 4
22 22 22 23 24 27 25 21 19 19 20 21 20 17 12 6 6 6 8 2 7 12 14 13 16 11 11 13 15 15 15 16 18 18 20 21 20 21 22 21 19 21 20 20 19 18 17 16 14 11 10 11 13 14 16 17 18 19 21 21 19 21 22 21 20 20 20 19 20 19 18 17 15 15 14 12 10 10 8 9 6 5 4 4 4 4
9 14 19 21 19 25 24 23 22 19 20 20 22 18 17 13 8 2 4 -1 5 10 10 14 8 14 6 12 17 16 16 17 18 19 20 21 21 22 22 21 20 19 19 19 18 18 17 16 14 13 12 11 13 14 17 17 18 19 20 22 21 20 21 20 19 20 19 19 19 18 17 16 14 13 11 11 11 9 8 5 4 3 3 3 3 3
14 16 19 23 23 25 24 25 24 22 20 20 22 22 16 17 18 6 11 5 7 13 14 9 13 14 11 17 22 20 18 17 19 19 21 20 20 18 18 17 18 18 18 18 18 17 16 16 14 14 13 12 13 14 16 16 18 20 20 21 21 20 20 19 20 20 19 18 17 16 15 14 12 12 12 10 8 5 5 4 3 2 2 3 3 3
17 14 21 23 24 23 23 24 23 23 15 18 21 18 22 24 16 15 15 8 7 7 13 5 14 16 16 15 16 15 15 16 17 16 17 17 18 17 17 17 17 18 18 18 18 17 15 14 14 14 12 13 14 15 16 16 18 19 21 21 20 19 19 18 20 18 18 17 15 15 13 12 11 10 8 5 4 3 3 3 2 2 2 3 4 6
20 21 24 23 21 23 20 22 23 21 24 20 17 20 22 25 23 20 14 12 3 9 12 10 12 10 10 11 15 14 15 15 15 15 14 16 18 14 16 18 18 19 18 17 17 17 15 13 14 14 14 13 14 15 16 17 19 19 21 20 18 19 18 18 18 18 17 15 15 13 11 10 8 6 5 5 2 2 1 2 1 2 3 3 5 6
23 15 19 23 24 22 23 22 23 24 22 19 19 25 16 11 11 16 11 9 6 7 11 13 12 14 11 9 9 10 13 14 14 15 15 14 14 14 14 15 16 18 18 16 15 15 15 13 13 13 13 13 14 16 16 18 20 21 21 19 17 17 17 17 18 16 17 15 13 11 9 7 5 4 3 2 1 0 0 1 2 3 3 5 5 6
21 19 14 23 21 21 21 23 19 19 20 21 21 17 19 16 13 13 16 12 13 9 3 10 13 10 8 11 12 8 11 14 13 14 15 15 15 14 14 15 16 17 17 16 15 15 15 14 11 11 12 13 15 16 17 19 21 19 19 19 17 18 17 16 16 15 13 12 10 9 6 4 2 1 -1 -1 -1 -2 -1 0 2 3 4 5 5 5
20 16 17 20 23 23 19 21 20 19 18 16 16 16 12 12 16 17 12 13 11 5 7 5 7 9 10 10 12 11 12 14 14 15 17 17 17 16 15 16 17 17 17 16 16 15 14 13 10 10 11 13 14 17 19 20 18 18 18 18 18 16 15 13 13 11 11 9 7 5 2 -0 -1 -3 -4 -3 -2 -0 0 1 4 3 4 4 4 4
21 17 19 18 18 18 18 21 23 22 20 18 17 16 15 15 12 10 13 12 8 9 10 7 8 13 13 10 12 15 14 15 16 16 18 19 18 16 16 15 16 18 16 16 15 14 14 12 12 10 12 13 15 16 17 18 17 16 16 16 16 14 11 11 10 9 8 5 3 1 -1 -4 -5 -6 -5 -2 -3 0 1 1 1 2 3 3 3 4
25 21 18 20 18 18 19 20 21 22 22 21 19 17 19 16 17 12 10 14 7 13 11 9 8 11 11 17 18 18 19 16 17 18 19 20 19 17 16 15 15 16 17 16 15 14 13 12 12 12 13 13 13 16 16 17 15 15 14 14 13 11 11 9 7 6 3 -1 -3 -5 -7 -8 -8 -7 -4 -3 -2 -0 -0 0 1 2 2 2 2 2
29 19 17 18 19 19 19 20 19 20 21 20 21 20 17 15 16 15 15 13 13 11 13 9 10 13 15 22 21 20 21 19 18 18 19 20 20 19 17 16 15 15 15 16 15 14 13 11 12 12 13 13 14 15 16 16 14 13 12 11 9 7 8 5 1 -1 -4 -6 -8 -9 -10 -9 -7 -5 -4 -3 -3 -2 -1 -0 0 2 2 1 1 -0
20 23 19 18 16 16 13 18 18 19 20 20 20 20 20 19 17 17 16 14 10 15 13 14 10 10 14 19 19 16 15 15 17 15 17 20 20 20 17 16 15 14 15 14 13 13 13 11 11 11 12 12 13 14 14 13 12 10 10 7 5 3 1 -2 -3 -7 -9 -10 -12 -11 -10 -8 -7 -6 -5 -4 -2 -1 -1 0 1 1 0 -1 -2 -2
23 22 20 16 15 12 9 8 9 13 18 19 17 19 20 19 17 17 15 16 14 14 14 13 12 12 11 16 16 13 12 14 12 12 11 15 17 16 17 17 15 14 13 13 13 12 12 11 11 10 11 11 12 13 13 12 10 8 6 3 2 -1 -5 -6 -9 -11 -12 -12 -11 -10 -8 -7 -6 -4 -3 -2 -1 -1 -0 0 -0 -1 -2 -2 -3 -3
23 22 19 17 16 13 11 9 16 21 18 16 17 19 20 20 20 19 19 16 15 15 15 16 15 13 14 14 14 14 14 15 16 17 11 12 11 12 14 16 16 14 13 12 12 13 12 10 10 10 10 11 12 13 12 10 8 5 2 -0 -5 -6 -8 -10 -12 -12 -12 -11 -9 -8 -7 -5 -4 -3 -2 -2 -1 -0 -0 -1 -2 -2 -3 -3 -3 -3
24 19 20 19 17 15 14 13 14 18 14 17 17 17 18 20 21 21 19 17 17 14 15 17 17 18 18 17 17 16 16 16 17 17 18 20 19 17 15 14 19 12 12 13 12 11 10 10 10 9 10 11 12 12 11 8 5 1 -2 -4 -7 -8 -10 -10 -11 -11 -10 -9 -8 -6 -5 -4 -2 -2 -1 -1 -1 -1 -2 -2 -3 -3 -3 -3 -3 -3
20 19 20 19 18 17 16 14 15 17 13 13 17 16 16 18 20 20 21 20 18 18 14 14 17 18 18 17 17 16 16 17 17 18 19 20 21 22 19 15 13 12 11 11 11 11 10 9 9 9 10 12 12 11 8 4 1 -2 -4 -5 -7 -9 -11 -10 -11 -10 -9 -8 -6 -5 -4 -3 -2 -1 -1 -1 -2 -3 -3 -3 -3 -3 -3 -3 -3 -3
23 22 21 20 18 18 19 19 19 17 16 15 15 16 16 14 17 19 19 19 19 19 19 18 17 17 17 16 15 16 17 19 19 20 21 22 22 23 22 18 14 12 11 11 11 11 10 9 9 9 11 12 11 9 5 2 -2 -4 -6 -7 -9 -11 -10 -10 -10 -9 -8 -7 -5 -4 -3 -2 -2 -2 -2 -3 -3 -3 -4 -4 -4 -3 -3 -3 -3 -2
22 21 24 21 21 22 21 21 20 19 18 17 18 19 18 17 17 18 18 18 19 18 18 19 19 19 19 19 19 20 20 21 21 21 21 21 22 23 23 23 18 14 13 11 11 11 10 9 9 9 11 11 10 8 4 -0 -3 -5 -7 -9 -10 -10 -10 -9 -8 -7 -6 -5 -4 -3 -3 -2 -2 -3 -3 -4 -4 -2 -4 -4 -3 -3 -2 -2 -2 -1
24 24 26 25 23 23 24 23 22 22 21 20 20 20 19 19 18 18 20 18 18 19 18 18 19 19 19 20 21 21 21 21 21 21 22 22 22 23 23 24 23 17 14 12 11 11 10 9 9 10 11 11 10 6 3 -2 -4 -6 -8 -9 -10 -10 -8 -8 -7 -6 -5 -4 -4 -3 -3 -3 -4 -4 -4 -4 -3 -3 -3 -3 -3 -3 -2 -2 -1 -0
27 25 24 24 23 22 25 25 23 23 23 22 22 21 21 21 21 21 21 22 21 21 20 19 19 20 20 21 21 21 22 23 23 23 23 23 24 24 24 24 25 22 18 14 12 12 10 9 9 10 11 10 9 5 1 -3 -5 -7 -8 -9 -9 -8 -8 -7 -6 -5 -4 -4 -3 -3 -4 -5 -4 -4 -4 -4 -4 -4 -4 -3 -3 -3 -2 -1 -0 0
27 27 25 26 22 22 25 24 24 22 18 18 23 26 23 21 21 20 20 22 23 23 22 22 21 22 22 22 22 22 22 22 23 23 24 24 24 25 25 25 25 24 22 17 13 12 10 9 9 10 10 10 8 4 -1 -3 -6 -8 -7 -8 -7 -7 -7 -6 -5 -5 -4 -3 -3 -4 -6 -6 -5 -5 -5 -5 -5 -5 -4 -4 -4 -3 -2 -1 0 0
26 27 25 26 22 21 24 24 22 17 18 23 27 26 24 23 22 22 23 23 22 23 23 23 23 23 23 24 24 24 24 24 24 24 24 25 26 26 26 26 25 24 22 17 13 11 10 9 9 10 10 9 5 -0 -4 -6 -6 -8 -6 -7 -7 -6 -6 -5 -5 -4 -4 -4 -5 -6 -5 -6 -6 -6 -6 -6 -5 -5 -5 -5 -4 -3 -2 -1 -1 -0
28 26 25 24 24 21 21 22 17 16 24 26 24 23 24 23 23 23 23 24 24 24 24 24 23 24 24 24 24 25 25 25 25 25 26 26 27 27 27 26 26 25 21 17 13 12 10 10 10 10 10 8 1 -4 -6 -8 -8 -7 -6 -6 -5 -5 -5 -5 -4 -5 -5 -6 -6 -7 -7 -7 -7 -7 -7 -7 -6 -6 -5 -4 -4 -3 -2 -2 -2 -1
30 29 27 24 27 22 21 21 20 25 24 24 23 22 21 21 21 21 20 20 20 21 22 23 23 23 24 24 24 25 25 25 25 26 27 27 27 27 27 27 27 25 21 17 14 12 11 10 10 10 7 0 -3 -7 -8 -8 -6 -5 -5 -5 -4 -4 -4 -5 -5 -5 -6 -6 -7 -8 -8 -8 -8 -8 -8 -7 -7 -6 -5 -4 -4 -4 -3 -3 -2 -2
30 29 29 26 24 26 23 21 22 22 19 21 24 24 23 23 22 23 22 22 23 22 22 22 22 22 23 24 24 25 25 25 25 25 26 27 27 26 26 26 25 24 20 16 12 12 11 11 9 6 -1 -4 -6 -8 -8 -6 -5 -5 -4 -5 -5 -4 -5 -4 -6 -7 -7 -8 -7 -9 -8 -8 -8 -8 -8 -8 -7 -7 -5 -5 -4 -4 -3 -3 -3 -3
31 30 29 27 25 26 25 21 19 18 19 23 22 22 23 23 23 23 22 21 23 23 23 23 23 23 24 24 25 24 24 23 24 26 26 25 25 24 24 22 21 18 15 12 11 11 10 8 3 -0 -3 -6 -6 -8 -6 -4 -4 -3 -4 -5 -5 -4 -4 -5 -6 -7 -8 -9 -10 -10 -9 -9 -9 -9 -9 -8 -7 -7 -6 -5 -5 -4 -4 -4 -4 -4
30 28 28 26 25 25 24 22 20 22 21 22 24 24 22 25 26 26 18 19 22 22 23 24 23 24 24 25 25 26 25 24 25 25 21 22 23 20 20 18 13 12 12 11 11 10 6 3 0 -3 -3 -4 -6 -6 -5 -3 -3 -2 -4 -4 -4 -5 -4 -4 -7 -9 -10 -10 -11 -9 -9 -9 -9 -9 -9 -8 -8 -7 -6 -5 -5 -5 -5 -5 -5 -5
28 27 27 24 24 24 26 23 23 24 26 27 26 25 24 26 26 21 18 21 22 24 24 25 24 25 25 25 26 26 26 26 26 23 16 14 15 13 12 13 12 12 10 9 8 13 2 -1 -2 -3 -2 -5 -6 -4 -4 -3 -2 -3 -4 -5 -5 -4 -5 -7 -9 -10 -11 -11 -11 -10 -10 -10 -9 -10 -10 -9 -8 -6 -6 -6 -6 -6 -6 -6 -6 -5
25 27 27 27 25 24 24 23 22 24 27 28 29 24 26 25 21 20 22 23 23 25 27 26 25 26 26 26 25 25 25 26 26 16 15 16 18 16 13 9 7 6 6 11 11 6 2 1 -1 -4 -5 -5 -4 -3 -3 -2 -1 -3 -4 -4 -4 -4 -9 -9 -11 -11 -11 -12 -12 -12 -12 -12 -10 -9 -9 -8 -7 -8 -8 -7 -7 -7 -7 -7 -7 -6
25 26 20 25 26 26 25 23 22 20 27 28 26 24 25 24 23 23 24 25 27 27 26 27 26 26 26 26 26 25 26 29 27 27 25 23 18 12 9 7 7 6 7 5 4 6 2 -1 -2 -5 -6 -5 -3 -4 -2 -1 -1 -3 -4 -3 -5 -9 -10 -11 -11 -12 -13 -13 -13 -13 -13 -12 -12 -10 -10 -10 -9 -9 -9 -8 -8 -8 -8 -8 -7 -5
29 25 24 26 27 23 22 21 21 24 24 30 26 25 25 25 25 25 26 25 26 27 27 26 26 26 26 25 25 26 28 29 27 25 23 18 16 13 11 10 8 5 3 2 2 4 3 -1 -2 -4 -5 -5 -4 -3 -1 -1 -1 -3 -3 -4 -9 -8 -9 -11 -12 -13 -14 -13 -13 -14 -13 -12 -13 -10 -12 -12 -10 -11 -10 -10 -10 -9 -9 -8 -6 -4
28 26 27 24 27 25 23 24 25 26 25 28 27 26 25 26 26 27 27 26 25 26 29 28 26 25 26 25 25 26 27 29 27 24 22 20 17 13 11 9 6 5 3 1 1 5 1 -0 -1 -4 -5 -6 -4 -3 -2 -1 -1 -3 -3 -6 -7 -6 -10 -12 -13 -14 -15 -15 -15 -14 -14 -14 -12 -13 -13 -13 -13 -12 -10 -11 -11 -11 -9 -8 -6 -4
30 29 28 26 24 27 27 26 29 27 26 27 27 27 26 27 27 28 28 27 27 27 27 28 27 26 26 27 27 29 29 28 28 26 23 22 18 14 11 7 5 4 3 1 1 2 -1 -1 -1 -2 -4 -5 -5 -4 -3 -2 -2 -4 -4 -8 -6 -8 -11 -13 -15 -16 -17 -16 -15 -15 -15 -13 -12 -12 -12 -12 -12 -12 -11 -11 -11 -11 -9 -8 -6 -4
30 28 27 25 26 25 24 26 26 26 27 27 26 27 27 27 27 27 27 27 27 27 28 28 27 28 28 30 28 27 28 29 28 27 24 21 16 12 10 8 7 4 3 2 2 3 0 -1 -2 -3 -3 -5 -6 -5 -4 -4 -3 -4 -7 -8 -9 -10 -13 -15 -15 -14 -16 -17 -15 -14 -13 -12 -10 -10 -12 -14 -13 -12 -11 -11 -11 -11 -9 -6 -4 -4
28 30 28 27 27 25 25 26 27 27 27 27 27 27 27 27 27 27 28 27 27 27 27 28 29 29 30 30 29 29 28 29 29 27 23 20 17 13 10 8 7 4 3 3 2 2 0 -0 -1 -3 -4 -6 -7 -7 -6 -6 -6 -7 -8 -9 -10 -12 -14 -15 -14 -15 -17 -16 -13 -13 -12 -12 -10 -12 -13 -13 -14 -13 -13 -12 -11 -9 -6 -4 -3 -2
31 32 30 29 28 28 28 28 28 28 28 28 28 28 27 27 27 27 27 27 27 28 28 28 29 27 28 28 28 29 29 29 28 27 24 21 17 13 10 9 8 5 4 2 1 1 -0 -1 -1 -3 -4 -6 -7 -7 -7 -7 -8 -9 -9 -10 -13 -14 -15 -15 -14 -15 -16 -14 -13 -12 -11 -12 -15 -14 -13 -13 -14 -13 -12 -13 -11 -5 -2 -1 1 4
35 31 31 31 29 29 29 29 30 28 28 28 28 29 29 28 28 28 28 28 28 28 28 28 28 28 28 29 28 29 29 29 29 27 24 22 18 14 13 10 9 6 4 3 1 0 0 1 -1 -3 -4 -6 -7 -7 -8 -9 -10 -10 -10 -12 -13 -14 -15 -15 -15 -15 -14 -13 -13 -13 -12 -14 -15 -15 -13 -14 -14 -14 -13 -8 4 4 1 2 9 12
35 34 35 31 30 29 31 32 32 30 29 29 29 29 30 30 30 29 28 28 28 28 28 28 28 29 28 28 29 29 29 29 29 27 25 22 19 18 13 9 6 6 4 2 -0 -0 -0 -2 -1 -2 -4 -6 -7 -8 -9 -10 -11 -10 -12 -13 -14 -14 -14 -14 -15 -15 -14 -14 -13 -11 -12 -13 -14 -14 -15 -16 -13 -14 -14 -14 -13 3 7 8 9 11